Location: Bjelajci
(45.0103°N, 16.1758°E)
Time: 19:47:09
(UTC+00:00)

Okean 1-7 - Pass Details

Date: 14 July 2020
Orbit: 592 x 618 km, 82.5° (Epoch: 05 August)

Event Time Altitude Azimuth Distance (km) Brightness Sun altitude
Rises 01:12:45 0° 339° (NNW) 2,903 7.0 -16.9°
Reaches altitude 10° 01:15:18 10° 325° (NW) 1,991 5.9 -16.7°
Maximum altitude 01:18:50 24° 272° (W) 1,286 4.4 -16.4°
Enters shadow 01:19:45 22° 253° (WSW) 1,342 4.3 -16.3°
